Home > Weather > Flekkefjord > Past weeks

Flag for Norway Past Weather in Flekkefjord, Norway — Yesterday and Last 2 Weeks

Now
58 °F

Overcast.


Feels Like: 58 °F
Forecast: 52 / 59 °F
Wind: 2 mph from Northwest

Location: Lista Fyr

Current Time: May 27, 2016 at 12:25:09 PM

Latest Report: May 27, 2016 at 11:00 AM


Visibility: 16 mi

Pressure: 30.16 "Hg

Humidity: 64%

Dew Point: 46 °F

Location of FlekkefjordLocation

Past Weather in Flekkefjord — Graph

°F

Flekkefjord Temperature Yesterday

Maximum temperature yesterday: 59 °F (at 1:00 PM)
Minimum temperature yesterday: 45 °F (at 4:00 AM)
Average temperature yesterday: 54 °F

High & Low Weather Summary for the Past Weeks

 TemperatureHumidityPressure
High64 °F (May 25, 12:00 PM)100% (May 18, 8:00 PM)30.16 "Hg (May 18, 8:00 PM)
Low42 °F (May 15, 5:00 AM)41% (May 25, 11:00 AM)29.65 "Hg (May 13, 7:00 PM)
Average51 °F81%29.85 "Hg
* Reported May 12 11:00 AM — May 27 11:00 AM, Flekkefjord, Weather by CustomWeather, © 2016

Note: Actual official high and low records may vary slightly from our data, if they occured in-between our weather recording intervals... More about our weather records

Advertising

Flekkefjord Weather History for the Previous 24 Hours

Scroll right to see more
 ConditionsComfort  
Time TempWeatherWind HumidityBarometerVisibility
11:00 AM
Fri, May 27
58 °FOvercast.2 mph64%30.16 "Hg16 mi
10:00 AM56 °FCool.1 mph69%30.16 "HgN/A
9:00 AM55 °FCool.1 mph73%30.15 "HgN/A
8:00 AM53 °FPartly sunny.1 mph79%30.14 "Hg16 mi
7:00 AM51 °FCool.3 mph83%30.13 "HgN/A
6:00 AM48 °FCool.2 mph89%30.12 "HgN/A
5:00 AM48 °FCool.2 mph84%30.11 "HgN/A
4:00 AM50 °FCool.No wind100%30.10 "HgN/A
3:00 AM52 °FCool.1 mph100%30.10 "HgN/A
2:00 AM51 °FCool.1 mph84%30.10 "HgN/A
1:00 AM53 °FCool.2 mph85%30.09 "HgN/A
12:00 AM50 °FCool.3 mph93%30.10 "HgN/A
11:00 PM
Thu, May 26
54 °FCool.5 mph85%30.08 "HgN/A
10:00 PM56 °FCool.7 mph79%30.06 "HgN/A
9:00 PM57 °FCool.8 mph74%30.05 "HgN/A
8:00 PM57 °FScattered clouds.9 mph75%30.06 "Hg16 mi
7:00 PM57 °FCool.5 mph71%30.07 "HgN/A
6:00 PM57 °FCool.5 mph74%30.09 "HgN/A
5:00 PM58 °FCool.5 mph73%30.11 "HgN/A
4:00 PM57 °FCool.5 mph71%30.11 "HgN/A
3:00 PM56 °FCool.5 mph67%30.12 "HgN/A
2:00 PM57 °FScattered clouds.3 mph69%30.13 "Hg16 mi
1:00 PM59 °FCool.3 mph66%30.13 "HgN/A
12:00 PM58 °FCool.5 mph65%30.13 "HgN/A
Weather by CustomWeather, © 2016

See weather overviewHow to use our weather pages